Home > Weather > Zhengzhou > Past weeks

Flag for China Past Weather in Zhengzhou, Henan, China — Yesterday and Last 2 Weeks

Now
97 °F

Passing clouds.


Feels Like: 112 °F
Forecast: 79 / 99 °F
Wind: 8 mph from Southeast

Location: Zhengzhou Airport

Current Time: Jul 29, 2016 at 3:56:21 PM

Latest Report: Jul 29, 2016 at 3:00 PM


Visibility: N/A

Pressure: 29.65 "Hg

Humidity: 53%

Dew Point: 77 °F

Location of ZhengzhouLocation

Past Weather in Zhengzhou — Graph

°F

Zhengzhou Temperature Yesterday

Maximum temperature yesterday: 99 °F (at 2:00 PM)
Minimum temperature yesterday: 73 °F (at 6:00 AM)
Average temperature yesterday: 88 °F

High & Low Weather Summary for the Past Weeks

 TemperatureHumidityPressure
High99 °F (Jul 26, 4:00 PM)100% (Jul 17, 6:00 AM)29.74 "Hg (Jul 17, 6:00 AM)
Low66 °F (Jul 16, 1:00 AM)31% (Jul 26, 4:00 PM)29.39 "Hg (Jul 19, 10:00 PM)
Average83 °F78%29.61 "Hg
* Reported Jul 14 2:00 PM — Jul 29 2:00 PM, Zhengzhou, Weather by CustomWeather, © 2016

Note: Actual official high and low records may vary slightly from our data, if they occured in-between our weather recording intervals... More about our weather records

Advertising

Zhengzhou Weather History for the Previous 24 Hours

Scroll right to see more
 ConditionsComfort  
Time TempWeatherWind HumidityBarometerVisibility
2:00 PM
Fri, Jul 29
99 °FPassing clouds.6 mph50%29.65 "HgN/A
1:00 PM97 °FPassing clouds.3 mph47%29.65 "HgN/A
12:00 PM95 °FSunny.3 mph53%29.65 "Hg10 mi
11:00 AM93 °FPassing clouds.3 mph59%29.68 "HgN/A
10:00 AM91 °FClear.3 mph67%29.68 "Hg5 mi
9:00 AM88 °FClear.3 mph75%29.65 "Hg5 mi
8:00 AM86 °FClear.3 mph79%29.65 "Hg4 mi
7:00 AM82 °FClear.1 mph89%29.62 "Hg4 mi
6:00 AM81 °FClear.3 mph89%29.59 "Hg4 mi
5:00 AM81 °FClear.1 mph89%29.59 "Hg4 mi
4:00 AM81 °FClear.1 mph89%29.59 "Hg4 mi
3:00 AM81 °FClear.1 mph89%29.59 "Hg10 mi
2:00 AM81 °FClear.1 mph94%29.62 "Hg10 mi
1:00 AM82 °FClear.3 mph89%29.62 "Hg10 mi
12:00 AM84 °FPassing clouds.3 mph84%29.62 "HgN/A
11:00 PM
Thu, Jul 28
86 °FPassing clouds.3 mph79%29.62 "HgN/A
10:00 PM86 °FClear.1 mph75%29.62 "Hg10 mi
9:00 PM88 °FPassing clouds.3 mph70%29.62 "HgN/A
8:00 PM88 °FClear.1 mph70%29.59 "Hg10 mi
7:00 PM91 °FPassing clouds.3 mph63%29.56 "HgN/A
6:00 PM95 °FPassing clouds.3 mph41%29.56 "HgN/A
5:00 PM97 °FPassing clouds.6 mph44%29.56 "HgN/A
4:00 PM97 °FPassing clouds.8 mph47%29.56 "HgN/A
3:00 PM99 °FSunny.3 mph42%29.59 "Hg10 mi
Weather by CustomWeather, © 2016

See weather overviewHow to use our weather pages